Regional Weather Roundup
Issued by NWS

Home | Current Version | Previous Version | Text Only | Print | Product List | Glossary Off
Versions: 1 2 3 4 5 6 7 8 9 10 11 12 13 14 15 16 17 18 19 20 21 22 23 24 25 26 27 28 29 30 31 32 33 34 35 36 37 38 39 40 41 42 43 44 45 46 47 48 49 50

000
ASUS43 KMPX 182010
RWRMN
WEATHER ROUNDUP FOR MINNESOTA
NATIONAL WEATHER SERVICE TWIN CITIES/CHANHASSEN MN
200 PM CST SAT NOV 18 2017


NOTE: "FAIR" INDICATES FEW OR NO CLOUDS BELOW 12,000 FEET WITH NO
SIGNIFICANT WEATHER AND/OR OBSTRUCTIONS TO VISIBILITY. N/A MEANS
CURRENT SKY AND/OR WEATHER CONDITIONS ARE NOT AVAILABLE.

MNZ060>063-068>070-182100-
   Twin Cities Metro

CITY           SKY/WX    TMP DP  RH WIND       PRES   REMARKS
TWIN CITIES    SUNNY     35  21  56 NW22G28   29.85R WCI  23
ST PAUL        SUNNY     37  21  52 NW23      29.85R
CRYSTAL        MOSUNNY   35  18  49 NW20G30   29.85R WCI  24
BLAINE         MOSUNNY   36  21  55 NW18G26   29.84R
LAKEVILLE      SUNNY     36  23  60 W17G24    29.84R
EDEN PRAIRIE   MOSUNNY   35  20  54 NW23G31   29.85R WCI  23
SOUTH ST PAUL  MOSUNNY   38  22  52 NW16G22   29.83R
LAKE ELMO      FAIR      36  23  60 NW13G20   29.84R
$$
MNZ001>005-007-008-013>017-022>024-027-028-182100-
   Northwest Minnesota

CITY           SKY/WX    TMP DP  RH WIND       PRES   REMARKS
BEMIDJI        FLURRIES  18  11  73 NW15G24   29.92R WCI   4
HALLOCK        MOSUNNY   18   9  68 W14       30.00S WCI   4
ROSEAU         LGT SNOW  18  10  73 W12       29.95R WCI   5
WARROAD        FLURRIES  16   9  73 W12       29.94R WCI   3
THIEF RVR FALL FLURRIES  16  10  77 W15       29.99R WCI   1
CROOKSTON      MOSUNNY   19  10  68 NW18      30.03R WCI   4
FOSSTON        FLURRIES  16   9  73 W16G22    29.98R WCI   0
DETROIT LAKES  FLURRIES  19  12  73 NW17G23   29.99R WCI   4
MOORHEAD       MOSUNNY   23  10  58 NW16      30.03S WCI  10
PARK RAPIDS    FLURRIES  20  12  71 NW21      29.92R WCI   4
MAHNOMEN       FLURRIES  18  10  72 NW15G25   29.99R WCI   3
$$
MNZ006-009>011-018-025>026-182100-
   North Central Minnesota

CITY           SKY/WX    TMP DP  RH WIND       PRES   REMARKS
BAUDETTE       CLOUDY    17   9  70 NW16      29.90R WCI   2
FLAG ISLAND    FLURRIES  16   9  73 W17       29.90R WCI   0
INTL FALLS     LGT SNOW  20  12  71 W16G23    29.85R WCI   6
WASKISH        FLURRIES  18  12  79 W13G18    29.92R WCI   4
BIG FORK       CLOUDY    21  12  68 W7        29.86R WCI  13
LONGVILLE      CLOUDY    21  14  73 NW9G18    29.90R WCI  11
GRAND RAPIDS   FLURRIES  22  15  75 NW14      29.87S WCI   9
CRANE LAKE     FLURRIES  21  16  79 W6        29.84R WCI  14
ORR            CLOUDY    19  12  73 W12       29.81R WCI   7
COOK           FLURRIES  21  16  79 NW9G16    29.83R WCI  11
WALKER         FLURRIES  19  11  71 NW14G21   29.90S WCI   6
$$
MNZ012-019>021-037-182100-
   Northeast Minnesota

CITY           SKY/WX    TMP DP  RH WIND       PRES   REMARKS
DULUTH         PTSUNNY   24  16  71 NW15G28   29.78R WCI  11
ELY            CLOUDY    21  16  79 NW10G16   29.78R WCI  10
HIBBING        CLOUDY    21  14  74 NW17      29.82R WCI   7
EVELETH        PTSUNNY   23  12  63 NW14      29.82R WCI  11
DULUTH HARBOR  CLOUDY    30  19  64 NW20      29.84R WCI  18
TWO HARBORS    SUNNY     34  19  55 NW10G17   29.76R WCI  26
SILVER BAY     PTSUNNY   28  19  69 NW10G20   29.74R WCI  19
GRAND MARAIS     N/A     30  21  69 VRB5      29.76R WCI  25
G MARAIS ARPRT CLOUDY    21  16  79 NW8       29.68S WCI  12
$$
MNZ029>031-032-039>041-046>048-054>057-064-182100-
   West Central Minnesota

CITY           SKY/WX    TMP DP  RH WIND       PRES   REMARKS
FERGUS FALLS   PTSUNNY   23  12  63 N25G32    30.03S WCI   7
WHEATON        SUNNY     28  10  47 NW21G26   30.04S WCI  15
MORRIS         SUNNY     28  16  59 NW25      29.98S WCI  14
ALEXANDRIA     SUNNY     26  14  60 NW15G29   29.95R WCI  14
ELBOW LAKE     PTSUNNY   24  13  65 NW20G29   30.00R HAZE    WCI   9
WADENA         PTSUNNY   19  12  73 W18G25    29.94S WCI   4
GLENWOOD       SUNNY     27  18  69 NW21G31   29.95R WCI  13
APPLETON       SUNNY     30  14  51 NW21G29   30.00R WCI  17
BENSON         SUNNY     28  16  59 N23G36    29.99S WCI  14
ORTONVILLE     SUNNY     28  14  54 MISG      30.01S
MADISON        SUNNY     34  18  51 NW21G28   30.00S WCI  22
WILLMAR        FAIR      30  19  64 NW26G33   29.96S WCI  16
$$
MNZ033>034-036-042>043-049>051-058-059-182100-
   Central Minnesota

CITY           SKY/WX    TMP DP  RH WIND       PRES   REMARKS
ST CLOUD       MOSUNNY   30  18  60 NW18G28   29.90R WCI  18
SAUK CENTRE    FAIR      27  16  63 NW24      29.94R WCI  12
PAYNESVILLE    MOSUNNY   29  21  71 NW15G24   29.93R WCI  18
AITKIN         CLOUDY    23  14  68 NW8G21    29.88R WCI  14
PINE RIVER     CLOUDY    21  12  68 NW10G18   29.94R WCI  10
BRAINERD       CLOUDY    25  13  60 NW18G26   29.91R WCI  11
STAPLES        PTSUNNY   25  12  58 NW16      29.92S WCI  12
LONG PRAIRIE   FAIR      28  18  64 W15G22    29.93R WCI  17
LITTLE FALLS   MOSUNNY   28  10  47 NW16G24   29.91R WCI  17
LITCHFIELD     SUNNY     30  19  64 NW18G26   29.92S WCI  18
BUFFALO        SUNNY     32  19  57 NW17G24   29.89R WCI  21
MAPLE LAKE     SUNNY     32  21  63 NW18G25   29.90R WCI  21
HUTCHINSON     SUNNY     32  22  65 NW20G29   29.91S WCI  21
$$
MNZ037-044-045-052-053-182100-
   East Central Minnesota

CITY           SKY/WX    TMP DP  RH WIND       PRES   REMARKS
PRINCETON      MOSUNNY   34  19  55 W16G23    29.88R WCI  23
MORA           MOSUNNY   32  19  59 NW17G25   29.87R WCI  21
CAMBRIDGE      SUNNY     36  19  51 W15G24    29.86R
RUSH CITY      PTSUNNY   31  20  62 NW9G22    29.85R WCI  23
MOOSE LAKE     PTSUNNY   30  18  59 NW8G20    29.82S WCI  23
HINCKLEY       FAIR      32  19  59 NW12G23   29.84R WCI  23
CLOQUET        MOSUNNY   27  14  59 NW12G23   29.81R WCI  16
MCGREGOR       CLOUDY    27  18  69 NW12G20   29.87R WCI  16
$$
MNZ071>073-080-081-089-090-097-098-182100-
   Southwest Minnesota

CITY           SKY/WX    TMP DP  RH WIND       PRES   REMARKS
MONTEVIDEO     SUNNY     32  18  55 N21G26    29.99R WCI  20
GRANITE FALLS  SUNNY     32  20  60 NW21G30   30.00R WCI  20
CANBY          SUNNY     34  18  51 W18G24    30.00F WCI  23
MARSHALL       SUNNY     33  17  51 N23       29.97S WCI  21
REDWOOD FALLS  SUNNY     32  17  54 NW22G29   29.95S WCI  19
OLIVIA         SUNNY     32  19  59 NW23G32   29.94S WCI  19
PIPESTONE      SUNNY     32  18  55 NW23G30   29.97R WCI  19
WINDOM           N/A     32  16  51 NW23G33   29.93R WCI  19
WORTHINGTON    SUNNY     35  19  52 NW30G36   29.95R WCI  22
JACKSON        MOSUNNY   34  21  60 NW29G38   29.93S WCI  20
SLAYTON        SUNNY     33  19  56 NW21G32   29.96R WCI  21
$$
MNZ065>067-074>077-082>085-091>093-182100-
   South Central Minnesota

CITY           SKY/WX    TMP DP  RH WIND       PRES   REMARKS
MANKATO        CLOUDY    33  21  61 NW22G29   29.89R WCI  21
NEW ULM        SUNNY     30  19  64 NW26G32   29.92R WCI  16
ST JAMES       MOSUNNY   32  19  59 NW23G32   29.94R WCI  19
FAIRMONT       CLOUDY    33  20  58 NW25G31   29.92R WCI  20
GLENCOE        MOSUNNY   33  22  62 NW21G32   29.89S WCI  21
FARIBAULT      SUNNY     36  23  60 NW17G28   29.85R
OWATONNA       MOSUNNY   36  25  64 NW20G31   29.84R
WASECA         MOSUNNY   36  25  64 NW23G30   29.87R
ALBERT LEA     MOSUNNY   37  25  60 NW15G23   29.84R
$$
MNZ078>079-086>088-094>096-182100-
   Southeast Minnesota

CITY           SKY/WX    TMP DP  RH WIND       PRES   REMARKS
ROCHESTER      SUNNY     39  28  64 NW24      29.79R
RED WING       SUNNY     39  21  48 NW13G25   29.80S
STANTON        SUNNY     38  24  57 NW17      29.82R
DODGE CENTER   MOSUNNY   37  27  65 NW17      29.81R
WINONA         SUNNY     41  28  60 NW14G23   29.77S
AUSTIN         SUNNY     39  27  60 NW21G28   29.81R
PRESTON        SUNNY     38  28  67 NW23      29.76R
$$
ABBREVIATIONS USED IN REMARKS
   TC - TEMPERATURES IN CELSIUS
  WCI - WIND CHILL INDEX
   HX - HEAT INDEX
  VSB - VISIBILITY
$$



USA.gov is the U.S. government's official web portal to all federal, state and local government web resources and services.